TimeEDT,TemperatureF,Dew PointF,Humidity,Sea Level PressureIn,VisibilityMPH,Wind Direction,Wind SpeedMPH,Gust SpeedMPH,PrecipitationIn,Events,Conditions,WindDirDegrees,DateUTC
12:53 AM,73.9,72.0,93,29.97,10.0,ENE,3.5,-,N/A,,Clear,70,2012-10-06 04:53:00
1:53 AM,73.9,72.0,93,29.95,10.0,NE,4.6,-,N/A,,Clear,50,2012-10-06 05:53:00
2:53 AM,73.9,72.0,93,29.94,10.0,NE,4.6,-,N/A,,Clear,50,2012-10-06 06:53:00
3:53 AM,73.0,72.0,96,29.92,10.0,East,3.5,-,N/A,,Clear,100,2012-10-06 07:53:00
4:34 AM,73.4,71.6,94,29.93,10.0,NNE,6.9,-,N/A,,Scattered Clouds,20,2012-10-06 08:34:00
4:53 AM,73.9,72.0,93,29.93,10.0,NNE,4.6,-,N/A,,Scattered Clouds,20,2012-10-06 08:53:00
5:04 AM,73.4,71.6,94,29.94,10.0,NE,3.5,-,N/A,,Mostly Cloudy,40,2012-10-06 09:04:00
5:32 AM,73.4,71.6,94,29.94,10.0,ENE,4.6,-,N/A,,Scattered Clouds,70,2012-10-06 09:32:00
5:44 AM,73.4,71.6,94,29.94,10.0,ENE,3.5,-,N/A,,Mostly Cloudy,70,2012-10-06 09:44:00
5:53 AM,73.9,72.0,93,29.93,10.0,NE,4.6,-,N/A,,Mostly Cloudy,40,2012-10-06 09:53:00
6:38 AM,73.4,73.4,100,29.95,1.5,NE,5.8,-,N/A,,Overcast,40,2012-10-06 10:38:00
6:49 AM,73.4,73.4,100,29.95,0.8,NNE,3.5,-,N/A,,Overcast,30,2012-10-06 10:49:00
6:53 AM,73.9,73.0,97,29.95,1.0,NE,3.5,-,N/A,,Overcast,40,2012-10-06 10:53:00
6:59 AM,73.4,73.4,100,29.95,3.0,Calm,Calm,-,N/A,,Overcast,0,2012-10-06 10:59:00
7:10 AM,73.4,73.4,100,29.95,1.5,NE,4.6,-,N/A,,Overcast,50,2012-10-06 11:10:00
7:19 AM,73.4,73.4,100,29.95,0.5,ENE,3.5,-,N/A,Fog,Fog,70,2012-10-06 11:19:00
7:27 AM,73.4,73.4,100,29.95,2.5,Calm,Calm,-,N/A,,Mostly Cloudy,0,2012-10-06 11:27:00
7:34 AM,73.4,73.4,100,29.95,7.0,Calm,Calm,-,N/A,,Mostly Cloudy,0,2012-10-06 11:34:00
7:44 AM,73.4,73.4,100,29.95,9.0,Calm,Calm,-,N/A,,Scattered Clouds,0,2012-10-06 11:44:00
7:53 AM,73.9,73.0,97,29.95,9.0,Calm,Calm,-,N/A,,Partly Cloudy,0,2012-10-06 11:53:00
8:42 AM,75.2,73.4,94,29.96,10.0,Calm,Calm,-,N/A,,Mostly Cloudy,0,2012-10-06 12:42:00
8:50 AM,75.2,73.4,94,29.96,10.0,East,3.5,-,N/A,,Scattered Clouds,80,2012-10-06 12:50:00
8:53 AM,75.9,73.9,94,29.95,10.0,East,3.5,-,N/A,,Scattered Clouds,80,2012-10-06 12:53:00
9:53 AM,80.6,75.2,84,29.96,10.0,Calm,Calm,-,N/A,,Scattered Clouds,0,2012-10-06 13:53:00
10:53 AM,82.9,75.0,77,29.95,10.0,South,4.6,-,N/A,,Scattered Clouds,180,2012-10-06 14:53:00
11:53 AM,84.9,72.0,65,29.95,10.0,WSW,4.6,-,N/A,,Mostly Cloudy,240,2012-10-06 15:53:00
12:06 PM,84.2,71.6,66,29.96,10.0,NW,3.5,-,N/A,,Overcast,310,2012-10-06 16:06:00
12:53 PM,86.0,70.0,59,29.94,10.0,Calm,Calm,-,N/A,,Clear,0,2012-10-06 16:53:00
1:53 PM,87.1,70.0,57,29.91,10.0,Calm,Calm,-,N/A,,Partly Cloudy,0,2012-10-06 17:53:00
2:53 PM,87.1,69.1,55,29.88,10.0,NNW,4.6,-,N/A,,Clear,330,2012-10-06 18:53:00
3:53 PM,87.1,69.1,55,29.87,10.0,North,3.5,-,N/A,,Clear,360,2012-10-06 19:53:00
4:53 PM,87.1,70.0,57,29.86,10.0,North,3.5,-,N/A,,Partly Cloudy,360,2012-10-06 20:53:00
5:53 PM,87.1,71.1,59,29.85,10.0,NE,6.9,-,N/A,,Clear,50,2012-10-06 21:53:00
6:53 PM,84.2,71.6,66,29.88,10.0,NE,5.8,-,N/A,,Clear,50,2012-10-06 22:53:00
7:53 PM,79.0,70.0,74,29.90,10.0,East,13.8,-,N/A,,Mostly Cloudy,90,2012-10-06 23:53:00
8:53 PM,77.0,71.1,82,29.92,10.0,East,5.8,-,N/A,,Clear,100,2012-10-07 00:53:00
9:53 PM,75.9,70.0,82,29.96,10.0,ENE,9.2,-,N/A,,Scattered Clouds,60,2012-10-07 01:53:00
10:53 PM,75.0,71.1,87,29.97,10.0,South,4.6,-,N/A,,Clear,180,2012-10-07 02:53:00
11:53 PM,75.0,72.0,90,29.96,10.0,Calm,Calm,-,0.00,Rain,Light Rain,0,2012-10-07 03:53:00